Weather in Osypnoy Bugor

Russia / Astrakhan Oblast     46°17′47″N   48°03′11″E
temp.,
°C
wind,
m/s
gust,
m/s
humid.,
%
clouds,
%
prec.,
mm/h
press.,
hPa
HPBL,
m
27 november, sat
sat2701:00+2ese4955100 0.0 1027290
04:00+2ese496992 0.0 1025313
07:00+2ese487699 0.0 1024253
10:00+4ese5979100 0.0 1024457
13:00+5ese6873100 0.0 1023523
16:00+5se577184 0.0 1023535
19:00+3ese49739 0.0 1022285
22:00+3ese487588 0.0 1022243
28 november, sun
sun2801:00+3ese367383 0.0 1021117
04:00+3ese367693 0.0 1020105
07:00+3ese467887 0.0 1020109
10:00+5se487597 0.0 1020192
13:00+9se5762100 0.0 1019374
16:00+9se36638 0.0 1019268
19:00+5ese3577100 0.0 102099
22:00+5ese3578100 0.0 1020115
29 november, mon
mon2901:00+6se4872100 0.0 1020143
04:00+5e337179 0.0 102025
07:00+5ese337084 0.0 102040
10:00+6ese3762100 0.0 1021183
13:00+11se47447 0.0 1020462
16:00+10se58465 0.0 1019384
19:00+6se410695 0.0 1019225
22:00+6se513715 0.0 1017281
30 november, tue
tue3001:00+6sse51572100 0.0 1014312
04:00+7se8187279 0.0 1011381
07:00+8sse92077100 0.0 1008460
10:00+9sse71786100 0.0 1007487
13:00+11wsw4782100 0.0 1007623
16:00+11sse1179100 0.0 100538
19:00+10s1186100 0.0 100611
22:00+10ssw2285100 0.0 100414
1 december, wed
wed101:00+8ese2292100 0.1 100017
04:00+8ese4593100 0.1 99781
07:00+8w61093100 0.1 999296
10:00+9wsw3993100 1.9 999242
13:00+12w11196481 0.0 10001460
16:00+7wnw101682100 0.0 10041003
19:00+5wnw71463100 0.0 1007845
22:00+4wnw51063100 0.0 1010683